Regional Weather Roundup
Issued by NWS

Home | Current Version | Previous Version | Graphics & Text | Print | Product List | Glossary On
Versions: 1 2 3 4 5 6 7 8 9 10 11 12 13 14 15 16 17 18 19 20 21 22 23 24 25 26 27 28 29 30 31 32 33 34 35 36 37 38 39 40 41 42 43 44 45 46 47 48 49 50
000
ASUS43 KLMK 061502
RWRKY
KENTUCKY REGIONAL WEATHER ROUNDUP
NATIONAL WEATHER SERVICE LOUISVILLE KY
1100 AM EDT MON JUL 06 2015

NOTE "FAIR" INDICATES FEW OR NO CLOUDS BELOW 12,000 FEET
WITH NO SIGNIFICANT WEATHER AND/OR OBSTRUCTIONS TO VISIBILITY.

KYZ001>023-026-027-061>063-070>075-061600-
WESTERN AND SOUTH CENTRAL KENTUCKY

CITY           SKY/WX    TMP DP  RH WIND       PRES   REMARKS
PADUCAH        PTSUNNY   78  71  79 S9        30.07F
HENDERSON      MOSUNNY   81  72  74 SW9       30.06S
OWENSBORO      MOSUNNY   81  74  79 SW6       30.08S
HOPKINSVILLE   MOSUNNY   81  73  76 SW7       30.10F
BOWLING GREEN  PTSUNNY   78  71  79 SW9       30.11F
GLASGOW        NOT AVBL
$$

KYZ024-025-028>034-038-045-046-053-061600-
NORTH CENTRAL KENTUCKY

CITY           SKY/WX    TMP DP  RH WIND       PRES   REMARKS
LOUISVILLE/SDF MOSUNNY   78  69  73 CALM      30.09S
LOUISVILLE/LOU SUNNY     78  69  73 CALM      30.10S
FORT KNOX      SUNNY     80  69  70 VRB2      30.09S
$$

KYZ035>037-039>044-047>052-055>060-089>105-061600-
NORTHEAST KENTUCKY

CITY           SKY/WX    TMP DP  RH WIND       PRES   REMARKS
LEXINGTON      SUNNY     77  64  64 CALM      30.13S
COVINGTON      SUNNY     76  62  62 SW6       30.12S
FRANKFORT      SUNNY     77  65  66 CALM      30.11F
$$

KYZ054-064>069-076>088-106>120-061600-
SOUTHEAST KENTUCKY

CITY           SKY/WX    TMP DP  RH WIND       PRES   REMARKS
JACKSON        CLOUDY    72  67  84 CALM      30.16S
LONDON         CLOUDY    72  66  81 S7        30.17R
SOMERSET       NOT AVBL
MIDDLESBORO    NOT AVBL
MONTICELLO     PTSUNNY   78  73  84 SW7       30.17F
$$



USA.gov is the U.S. government's official web portal to all federal, state and local government web resources and services.